SIRIUS FM-6

Last updated on Jan. 17, 2021, 6:29 a.m. UTC

1 39360U 13058A   21016.72430597 -.00000021  00000-0  00000-0 0  9999
2 39360   0.0057   3.8972 0000948 154.9909 102.0671  1.00271542 26234
UTC
Height (km)
Latitude
Longitude
Inclination
Orbital Period
UTC large
Height (km)
Speed (km/s)
/
Latitude / Longitude
Inclination (degrees)
Orbital Period (minutes)
Azimuth
Elevation
Range (km)
Doppler Factor
iOS Compass Heading
iOS Angle

Next 30 passes for location: Hong Kong

Rise time Rise Azimuth (degrees) Set time Set Azimuth (degrees) Duration Max altitude (degrees)

No matching passes for this satellites